Location: Bucaral
(10.5128°N, 67.0901°W)
Time: 07:42:55
(UTC+00:00)

Cosmos 2098 Rocket - Pass Details

Date: 18 April 2024
Orbit: 359 x 1028 km, 82.9° (Epoch: 24 May)

Event Time Altitude Azimuth Distance (km) Brightness Sun altitude
Rises 23:39:11 0° 181° (S) 3,651 6.9 -15.1°
Reaches altitude 10° 23:41:52 10° 180° (S) 2,629 6.1 -15.8°
Maximum altitude 23:47:53 82° 94° (E) 832 3.5 -17.2°
Drops below altitude 10° 23:52:52 10° 6° (N) 2,191 6.0 -18.4°
Sets 23:54:57 0° 6° (N) 3,005 6.7 -18.9°
